Location: Bourg-d�Oueil
(42.8588°N, 0.4991°E)
Time: 14:40:10
(UTC+00:00)

ERS-1 Rocket - Pass Details

Date: 16 June 2021
Orbit: 752 x 758 km, 98.4° (Epoch: 31 July)

Event Time Altitude Azimuth Distance (km) Brightness Sun altitude
Exits shadow 21:24:38 23° 153° (SSE) 1,581 4.0 -14.8°
Maximum altitude 21:27:49 71° 73° (ENE) 805 3.0 -15.2°
Drops below altitude 10° 21:32:51 10° 351° (N) 2,298 6.5 -15.7°
Sets 21:35:10 0° 349° (N) 3,227 7.5 -16.0°
